Location: Big Meadows
(38.5260°N, 78.4400°W)
Time: 06:59:03
(UTC-04:00)

Amateur Radio Satellites - All Passes

Search period start: 19 October 2017 06:29
Search period end: 20 October 2017 06:29
Location: Big Meadows, 38.5260°N, 78.4400°W

Satellite Date Start Highest point End Downlink Frequencies (MHz)
Time Altitude Azimuth
XW-2D 19 Oct 06:33:47 06:36:35 20° 95° (E) 06:39:23 145.860 - 145.880
NUDT-PHONESAT 19 Oct 06:40:47 06:43:05 16° 94° (E) 06:45:22 437.300
RS-15 19 Oct 06:44:26 06:52:13 18° 4° (N) 06:59:50 29.354- 29.394
XW-2B 19 Oct 06:46:49 06:50:04 28° 97° (E) 06:53:18 145.730 - 145.750
SO-50 19 Oct 07:01:19 07:05:11 29° 113° (ESE) 07:09:04 436.795
XW-2C 19 Oct 07:09:37 07:13:19 58° 100° (E) 07:16:59 145.795 - 145.815
O/OREOS (USA 219) 19 Oct 07:13:34 07:18:06 53° 66° (ENE) 07:22:34 437.305
DOVE 4 19 Oct 07:20:58 07:25:13 29° 290° (WNW) 07:29:35 437.250
CUTE 1.7 + AOD 2 19 Oct 07:26:06 07:28:56 18° 93° (E) 07:31:47 437.475
HO-68 19 Oct 07:34:40 07:40:56 31° 96° (E) 07:47:11 435.675
SEEDS 19 Oct 07:36:44 07:38:53 14° 92° (E) 07:41:01 437.485
STRAND 1 19 Oct 07:45:13 07:50:18 72° 74° (ENE) 07:55:27 437.568
CUTE-I 19 Oct 07:54:48 08:00:08 70° 287° (WNW) 08:05:29 437.470
PCSat 19 Oct 07:54:55 07:58:15 17° 104° (ESE) 08:01:37 145.827
XW-2F 19 Oct 07:56:08 07:59:33 35° 287° (WNW) 08:02:56 145.980 - 146.000
KAITUO 1B 19 Oct 07:56:48 08:00:20 44° 286° (WNW) 08:03:50 145.475/437.950
LilacSat-2 19 Oct 07:58:17 08:01:34 29° 288° (WNW) 08:04:50 437.200
AAUSAT CUBESAT 2 19 Oct 08:05:31 08:07:14 12° 91° (E) 08:08:57 437.432
XW-2D 19 Oct 08:07:41 08:10:41 23° 290° (WNW) 08:13:41 145.860 - 145.880
CUBEBUG 2 19 Oct 08:10:17 08:14:30 34° 96° (E) 08:18:36 437.445
NUDT-PHONESAT 19 Oct 08:13:48 08:16:58 28° 288° (WNW) 08:20:06 437.300
XW-2B 19 Oct 08:21:31 08:24:01 17° 292° (WNW) 08:26:30 145.730 - 145.750
ZACube-1 19 Oct 08:33:15 08:36:07 17° 92° (E) 08:38:55 437.345
XW-2A 19 Oct 08:36:17 08:39:25 37° 98° (E) 08:42:32 145.665 - 145.685
SO-50 19 Oct 08:41:41 08:45:34 28° 310° (NW) 08:49:29 436.795
UWE-3 19 Oct 08:51:15 08:55:42 54° 99° (E) 08:59:59 435.000/436.395/437.385
UNISAT 6 19 Oct 08:51:57 08:52:08 10° 61° (ENE) 08:52:21 437.425
O/OREOS (USA 219) 19 Oct 08:54:46 08:56:59 13° 262° (W) 08:59:10 437.305
RS-15 19 Oct 08:59:13 09:09:58 35° 38° (NE) 09:20:10 29.354- 29.394
CUTE 1.7 + AOD 2 19 Oct 09:01:02 09:04:50 34° 288° (WNW) 09:08:38 437.475
JUGNU 19 Oct 09:01:49 09:03:44 12° 180° (S) 09:05:38 437.505
FO-29 19 Oct 09:03:08 09:08:12 57° 72° (ENE) 09:13:35 435.910
TIGRISAT 19 Oct 09:05:00 09:07:12 13° 63° (ENE) 09:09:25 435.000
SEEDS 19 Oct 09:10:48 09:14:45 43° 287° (WNW) 09:18:42 437.485
Oscar 11 19 Oct 09:11:51 09:15:33 27° 96° (E) 09:19:12 .
YUBILEINY 19 Oct 09:19:13 09:26:48 36° 85° (E) 09:34:25 435.215
HO-68 19 Oct 09:21:58 09:28:47 47° 293° (WNW) 09:35:35 435.675
STRAND 1 19 Oct 09:28:04 09:29:58 12° 270° (W) 09:31:53 437.568
PCSat 19 Oct 09:35:45 09:41:05 61° 300° (WNW) 09:46:29 145.827
AAUSAT CUBESAT 2 19 Oct 09:38:57 09:42:55 47° 286° (WNW) 09:46:52 437.432
DELFI C3 19 Oct 09:46:22 09:48:10 13° 92° (E) 09:49:57 145.870
nSIGHT-1 19 Oct 09:46:23 09:48:11 14° 129° (SE) 09:49:57 .
AO-73 19 Oct 09:47:01 09:51:22 76° 285° (WNW) 09:55:37 145.935
CUBEBUG 2 19 Oct 09:47:18 09:50:52 22° 293° (WNW) 09:54:20 437.445
ZACube-1 19 Oct 10:08:28 10:12:32 38° 288° (WNW) 10:16:29 437.345
XW-2A 19 Oct 10:11:16 10:11:44 10° 294° (WNW) 10:12:12 145.665 - 145.685
ISS 19 Oct 10:14:44 10:17:26 25° 132° (SE) 10:20:09 437.550
PRISM 19 Oct 10:18:34 10:22:15 35° 72° (ENE) 10:25:57 437.425
UNISAT 6 19 Oct 10:23:28 10:28:05 84° 256° (WSW) 10:32:48 437.425
UWE-3 19 Oct 10:29:20 10:31:37 14° 296° (WNW) 10:33:52 435.000/436.395/437.385
TIGRISAT 19 Oct 10:38:43 10:43:17 63° 260° (W) 10:47:57 435.000
NO-84 19 Oct 10:45:21 10:48:40 28° 34° (NE) 10:51:45 435.350 FM
Oscar 11 19 Oct 10:48:07 10:51:32 23° 291° (WNW) 10:54:56 .
EO-88 19 Oct 10:49:04 10:52:27 36° 98° (E) 10:55:49 145.990 - 145.960
FO-29 19 Oct 10:50:58 10:53:50 15° 270° (W) 10:56:48 435.910
Max Valier Satellite 19 Oct 10:55:38 10:59:18 68° 101° (E) 11:02:56 145.860
RS-15 19 Oct 11:11:47 11:23:37 77° 244° (WSW) 11:34:48 29.354- 29.394
YUBILEINY 19 Oct 11:15:03 11:23:17 47° 284° (WNW) 11:31:38 435.215
DELFI C3 19 Oct 11:19:20 11:23:05 42° 287° (WNW) 11:26:50 145.870
nSIGHT-1 19 Oct 11:21:02 11:24:08 50° 324° (NW) 11:27:16 .
SRMSAT 19 Oct 11:22:24 11:24:22 12° 176° (S) 11:26:21 437.500
PCSat 19 Oct 11:24:37 11:25:37 10° 320° (NW) 11:26:37 145.827
EO-79 19 Oct 11:37:18 11:40:48 25° 69° (ENE) 11:44:18 145.935-145.965
POLYITAN 1 19 Oct 11:41:29 11:45:08 28° 70° (ENE) 11:48:48 437.675
LO-87 19 Oct 11:43:17 11:46:04 21° 95° (E) 11:48:50 145.935 - 145.965
ISS 19 Oct 11:50:50 11:53:48 32° 328° (NNW) 11:56:48 437.550
PRISM 19 Oct 11:55:06 11:57:37 16° 266° (W) 12:00:09 437.425
AIST 2D 19 Oct 11:59:54 12:03:21 54° 260° (W) 12:06:48 435.315
QB50P2 19 Oct 12:01:05 12:05:13 52° 74° (ENE) 12:09:24 145.880/145.840
BEESAT 3 19 Oct 12:04:51 12:07:47 20° 111° (ESE) 12:10:45 437.485
NANOSAT C BR1 19 Oct 12:05:43 12:09:46 46° 73° (ENE) 12:13:52 145.865
DUCHIFAT 1 19 Oct 12:17:05 12:21:13 55° 74° (ENE) 12:25:23 145.980
NO-84 19 Oct 12:22:49 12:26:01 29° 233° (SW) 12:28:58 435.350 FM
EO-88 19 Oct 12:24:07 12:25:44 13° 293° (WNW) 12:27:21 145.990 - 145.960
BUGSAT 1 19 Oct 12:30:59 12:34:00 20° 67° (ENE) 12:37:03 437.445
ESTCUBE 1 19 Oct 12:36:56 12:41:24 65° 101° (E) 12:45:50 437.505/2401.250
nSIGHT-1 19 Oct 12:59:40 13:01:01 12° 343° (NNW) 13:02:22 .
SRMSAT 19 Oct 13:11:16 13:12:37 11° 187° (S) 13:13:58 437.500
EO-79 19 Oct 13:12:55 13:16:26 25° 264° (W) 13:20:00 145.935-145.965
LO-87 19 Oct 13:16:33 13:19:22 21° 290° (WNW) 13:22:10 145.935 - 145.965
POLYITAN 1 19 Oct 13:17:28 13:20:52 23° 265° (W) 13:24:17 437.675
BEESAT 2 19 Oct 13:21:37 13:25:22 41° 115° (ESE) 13:29:11 435.950
Oscar 19 19 Oct 13:24:51 13:29:41 42° 71° (ENE) 13:34:31 437.125/150
AO-7 19 Oct 13:26:12 13:28:11 11° 45° (NE) 13:30:10 .
RS-15 19 Oct 13:27:55 13:33:48 16° 264° (W) 13:39:35 29.354- 29.394
ISS 19 Oct 13:30:32 13:31:05 10° 348° (NNW) 13:31:39 437.550
SPROUT 19 Oct 13:32:31 13:36:48 65° 101° (E) 13:41:03 437.525
M-CUBED/EXP-1 PRIME 19 Oct 13:34:08 13:37:30 54° 71° (ENE) 13:40:44 437.505
QB50P2 19 Oct 13:39:36 13:41:17 12° 269° (W) 13:42:59 145.880/145.840
BEESAT 3 19 Oct 13:41:28 13:45:06 33° 307° (NW) 13:48:46 437.485
NANOSAT C BR1 19 Oct 13:43:36 13:45:42 13° 268° (W) 13:47:49 145.865
DX 1 19 Oct 13:44:07 13:46:01 13° 92° (E) 13:47:54 434.975-435.025
Gurwin Techsat 1B 19 Oct 13:46:38 13:51:42 46° 71° (ENE) 13:56:46 435.225
DUCHIFAT 1 19 Oct 13:55:52 13:57:11 11° 269° (W) 13:58:30 145.980
AO-85 19 Oct 14:03:23 14:07:15 80° 120° (ESE) 14:11:12 145.980
BUGSAT 1 19 Oct 14:05:23 14:09:06 32° 263° (W) 14:12:55 437.445
VELOX 1 19 Oct 14:08:13 14:12:39 76° 286° (WNW) 14:17:05 145.980
UKube-1 19 Oct 14:10:02 14:12:37 15° 93° (E) 14:15:10 .
50 SAT 19 Oct 14:15:39 14:18:40 33° 98° (E) 14:21:41 437.505
ESTCUBE 1 19 Oct 14:15:59 14:17:37 12° 297° (WNW) 14:19:14 437.505/2401.250
BEESAT 2 19 Oct 15:00:26 15:03:17 18° 313° (NW) 15:06:09 435.950
Oscar 19 19 Oct 15:05:11 15:09:07 22° 266° (W) 15:13:03 437.125/150
SPROUT 19 Oct 15:10:56 15:12:06 11° 297° (WNW) 15:13:16 437.525
AO-7 19 Oct 15:11:06 15:19:04 54° 65° (ENE) 15:27:03 .
DX 1 19 Oct 15:18:13 15:22:28 53° 287° (WNW) 15:26:43 434.975-435.025
Gurwin Techsat 1B 19 Oct 15:27:58 15:31:50 20° 267° (W) 15:35:42 435.225
SO-50 19 Oct 15:33:37 15:37:08 21° 47° (NE) 15:40:41 436.795
ITAMSAT 1 19 Oct 15:34:07 15:39:00 44° 70° (ENE) 15:43:56 435.822/435.867
UKube-1 19 Oct 15:44:43 15:48:48 42° 288° (WNW) 15:52:52 .
AO-85 19 Oct 15:47:24 15:48:13 10° 319° (NW) 15:49:03 145.980
50 SAT 19 Oct 15:49:32 15:50:38 11° 293° (WNW) 15:51:46 437.505
MOZHAYETS 4 19 Oct 16:06:28 16:10:49 42° 98° (E) 16:15:09
nSIGHT-1 19 Oct 16:13:40 16:15:53 17° 24° (NNE) 16:18:06 .
CUBESAT XI-V 19 Oct 16:17:20 16:18:36 11° 90° (E) 16:19:50 437.345
ITUPSAT 1 19 Oct 16:25:26 16:30:11 58° 101° (ESE) 16:34:52 437.325
BEESAT 19 Oct 16:41:38 16:46:27 88° 99° (E) 16:51:13 436.000
ISS 19 Oct 16:43:30 16:46:15 24° 28° (NNE) 16:49:00 437.550
PCSat 19 Oct 16:43:37 16:46:04 13° 42° (NE) 16:48:31 145.827
DOVE 4 19 Oct 16:48:15 16:51:29 22° 68° (ENE) 16:54:48 437.250
AO-7 19 Oct 17:04:52 17:12:03 32° 263° (W) 17:19:17 .
SO-50 19 Oct 17:13:23 17:17:49 47° 244° (WSW) 17:22:17 436.795
ITAMSAT 1 19 Oct 17:14:47 17:18:38 21° 266° (W) 17:22:30 435.822/435.867
XW-2B 19 Oct 17:28:10 17:29:42 12° 66° (ENE) 17:31:16 145.730 - 145.750
CUTE-I 19 Oct 17:37:01 17:40:52 21° 64° (ENE) 17:44:42 437.470
KKS-1 19 Oct 17:41:22 17:45:06 25° 96° (E) 17:48:49 437.445
MOZHAYETS 4 19 Oct 17:44:35 17:47:37 18° 294° (WNW) 17:50:39
nSIGHT-1 19 Oct 17:49:16 17:52:28 72° 221° (SW) 17:55:40 .
XW-2C 19 Oct 17:49:42 17:52:43 23° 70° (ENE) 17:55:43 145.795 - 145.815
CUBESAT XI-V 19 Oct 17:51:48 17:56:21 65° 285° (WNW) 18:00:54 437.345
HO-68 19 Oct 18:03:08 18:08:12 21° 58° (ENE) 18:13:17 435.675
ITUPSAT 1 19 Oct 18:04:49 18:07:29 15° 297° (WNW) 18:10:07 437.325
STARS 19 Oct 18:17:00 18:20:39 25° 96° (E) 18:24:16 437.465
CUTE 1.7 + AOD 2 19 Oct 18:19:00 18:20:17 11° 64° (ENE) 18:21:34 437.475
ISS 19 Oct 18:19:43 18:22:49 39° 224° (SW) 18:25:53 437.550
PCSat 19 Oct 18:24:55 18:30:22 78° 62° (ENE) 18:35:46 145.827
DOVE 4 19 Oct 18:25:30 18:29:02 27° 265° (W) 18:32:42 437.250
KAITUO 1B 19 Oct 18:34:35 18:38:16 60° 76° (ENE) 18:41:57 145.475/437.950
XW-2F 19 Oct 18:34:37 18:38:23 81° 76° (ENE) 18:42:10 145.980 - 146.000
LilacSat-2 19 Oct 18:37:42 18:41:32 79° 258° (WSW) 18:45:23 437.200
XW-2D 19 Oct 18:46:15 18:50:01 63° 259° (W) 18:53:48 145.860 - 145.880
NUDT-PHONESAT 19 Oct 18:50:20 18:54:04 85° 258° (WSW) 18:57:48 437.300
XW-2B 19 Oct 18:59:51 19:03:28 43° 261° (W) 19:07:07 145.730 - 145.750
CUBEBUG 2 19 Oct 19:06:42 19:10:29 25° 68° (ENE) 19:14:20 437.445
XW-2A 19 Oct 19:07:56 19:08:53 11° 67° (ENE) 19:09:49 145.665 - 145.685
CUTE-I 19 Oct 19:15:23 19:20:30 49° 260° (W) 19:25:41 437.470
KKS-1 19 Oct 19:17:46 19:21:34 28° 291° (WNW) 19:25:21 437.445
XW-2C 19 Oct 19:23:48 19:26:47 22° 265° (W) 19:29:46 145.795 - 145.815
ZACube-1 19 Oct 19:28:21 19:30:26 13° 64° (ENE) 19:32:32 437.345
YUBILEINY 19 Oct 19:31:58 19:36:52 16° 62° (ENE) 19:41:43 435.215
UWE-3 19 Oct 19:46:11 19:50:26 37° 71° (ENE) 19:54:44 435.000/436.395/437.385
HO-68 19 Oct 19:48:02 19:55:10 74° 256° (WSW) 20:02:23 435.675
CUTE 1.7 + AOD 2 19 Oct 19:51:23 19:55:34 60° 259° (W) 19:59:45 437.475
STARS 19 Oct 19:53:08 19:56:55 28° 291° (WNW) 20:00:40 437.465
STRAND 1 19 Oct 19:57:38 20:02:01 27° 96° (E) 20:06:21 437.568
SEEDS 19 Oct 20:00:14 20:04:25 80° 257° (WSW) 20:08:37 437.485
Oscar 11 19 Oct 20:05:43 20:08:44 19° 67° (ENE) 20:11:45 .
PCSat 19 Oct 20:10:48 20:13:00 12° 258° (WSW) 20:15:12 145.827
AAUSAT CUBESAT 2 19 Oct 20:26:51 20:30:58 88° 72° (ENE) 20:35:05 437.432
XW-2A 19 Oct 20:38:00 20:41:11 37° 261° (W) 20:44:24 145.665 - 145.685
AO-73 19 Oct 20:40:04 20:44:35 68° 75° (ENE) 20:49:09 145.935
CUBEBUG 2 19 Oct 20:42:48 20:46:55 31° 264° (W) 20:51:07 437.445
ZACube-1 19 Oct 21:01:37 21:06:08 62° 260° (W) 21:10:42 437.345
UWE-3 19 Oct 21:23:31 21:26:57 20° 267° (W) 21:30:25 435.000/436.395/437.385
O/OREOS (USA 219) 19 Oct 21:24:04 21:28:37 84° 110° (ESE) 21:33:13 437.305
YUBILEINY 19 Oct 21:26:13 21:35:05 82° 83° (E) 21:43:55 435.215
EO-88 19 Oct 21:26:29 21:28:22 14° 67° (ENE) 21:30:16 145.990 - 145.960
Max Valier Satellite 19 Oct 21:33:09 21:36:10 23° 71° (ENE) 21:39:11 145.860
STRAND 1 19 Oct 21:36:34 21:41:10 33° 291° (WNW) 21:45:43 437.568
Oscar 11 19 Oct 21:40:35 21:44:35 36° 263° (W) 21:48:36 .
BEESAT 2 19 Oct 21:40:56 21:43:46 18° 47° (NE) 21:46:34 435.950
HO-68 19 Oct 21:42:55 21:43:57 10° 273° (W) 21:45:00 435.675
FO-29 19 Oct 21:56:17 22:03:12 65° 101° (E) 22:10:48 435.910
BEESAT 3 19 Oct 21:58:53 22:02:51 87° 61° (ENE) 22:06:44 437.485
DELFI C3 19 Oct 22:02:26 22:06:19 83° 78° (ENE) 22:10:15 145.870
UNISAT 6 19 Oct 22:17:18 22:20:59 23° 94° (E) 22:24:34 437.425
AO-73 19 Oct 22:20:16 22:21:13 11° 270° (W) 22:22:11 145.935
TIGRISAT 19 Oct 22:32:02 22:36:06 30° 96° (E) 22:40:04 435.000
AO-85 19 Oct 22:34:52 22:39:17 46° 55° (NE) 22:44:01 145.980
EO-88 19 Oct 22:58:20 23:01:41 34° 262° (W) 23:05:03 145.990 - 145.960
Max Valier Satellite 19 Oct 23:07:07 23:09:55 20° 265° (W) 23:12:44 145.860
O/OREOS (USA 219) 19 Oct 23:07:44 23:08:40 11° 308° (NW) 23:09:36 437.305
BEESAT 2 19 Oct 23:17:52 23:21:41 42° 244° (WSW) 23:25:26 435.950
RS-15 19 Oct 23:24:34 23:32:19 20° 98° (E) 23:40:03 29.354- 29.394
YUBILEINY 19 Oct 23:25:09 23:30:43 19° 281° (WNW) 23:36:19 435.215
AIST 2D 19 Oct 23:28:02 23:29:05 11° 92° (E) 23:30:06 435.315
ESTCUBE 1 19 Oct 23:34:44 23:39:03 49° 73° (ENE) 23:43:23 437.505/2401.250
PRISM 19 Oct 23:35:37 23:39:45 72° 103° (ESE) 23:43:51 437.425
FO-29 19 Oct 23:42:27 23:47:46 25° 296° (WNW) 23:53:28 435.910
LO-87 19 Oct 23:49:49 23:53:23 69° 259° (WSW) 23:57:00 145.935 - 145.965
UNISAT 6 19 Oct 23:53:37 23:57:41 31° 290° (WNW) 00:01:39 437.425
TIGRISAT 20 Oct 00:08:55 00:12:36 24° 292° (WNW) 00:16:13 435.000
AO-85 20 Oct 00:16:03 00:19:27 20° 249° (WSW) 00:23:00 145.980
SPROUT 20 Oct 00:24:06 00:28:04 39° 72° (ENE) 00:32:05 437.525
EO-79 20 Oct 00:57:58 01:02:10 55° 100° (E) 01:06:19 145.935-145.965
AIST 2D 20 Oct 00:59:12 01:02:24 35° 286° (WNW) 01:05:33 435.315
POLYITAN 1 20 Oct 01:02:29 01:06:44 63° 101° (E) 01:10:55 437.675
VELOX 1 20 Oct 01:03:33 01:07:55 78° 76° (ENE) 01:12:19 145.980
UKube-1 20 Oct 01:04:21 01:05:52 12° 63° (ENE) 01:07:23 .
ESTCUBE 1 20 Oct 01:13:41 01:16:06 14° 268° (W) 01:18:30 437.505/2401.250
QB50P2 20 Oct 01:22:44 01:26:59 67° 285° (WNW) 01:31:11 145.880/145.840
NANOSAT C BR1 20 Oct 01:26:36 01:30:52 76° 283° (WNW) 01:35:04 145.865
RS-15 20 Oct 01:30:38 01:42:55 83° 117° (ESE) 01:55:16 29.354- 29.394
DUCHIFAT 1 20 Oct 01:37:44 01:41:56 64° 285° (WNW) 01:46:06 145.980
Oscar 19 20 Oct 01:39:01 01:42:05 16° 92° (E) 01:45:07 437.125/150
BUGSAT 1 20 Oct 01:48:02 01:51:59 38° 98° (E) 01:55:53 437.445
SPROUT 20 Oct 02:01:26 02:04:06 16° 267° (W) 02:06:47 437.525
Gurwin Techsat 1B 20 Oct 02:05:01 02:08:56 20° 94° (E) 02:12:48 435.225
DX 1 20 Oct 02:11:46 02:16:05 75° 258° (WSW) 02:20:26 434.975-435.025
50 SAT 20 Oct 02:14:31 02:17:36 42° 260° (W) 02:20:44 437.505
EO-79 20 Oct 02:35:37 02:37:24 12° 296° (WNW) 02:39:11 145.935-145.965
UKube-1 20 Oct 02:37:06 02:41:20 61° 258° (WSW) 02:45:36 .
POLYITAN 1 20 Oct 02:40:42 02:41:56 11° 297° (WNW) 02:43:09 437.675
M-CUBED/EXP-1 PRIME 20 Oct 02:46:47 02:50:18 50° 106° (ESE) 02:54:02 437.505
MOZHAYETS 4 20 Oct 03:06:43 03:10:55 35° 71° (ENE) 03:15:08
AO-7 20 Oct 03:16:09 03:21:08 17° 91° (E) 03:26:03 .
Oscar 19 20 Oct 03:16:42 03:21:43 55° 287° (WNW) 03:26:41 437.125/150
CUBESAT XI-V 20 Oct 03:20:33 03:21:06 10° 62° (ENE) 03:21:40 437.345
BUGSAT 1 20 Oct 03:24:16 03:27:00 17° 294° (WNW) 03:29:43 437.445
ITUPSAT 1 20 Oct 03:30:27 03:35:09 58° 73° (ENE) 03:39:53 437.325
NO-84 20 Oct 03:35:08 03:39:22 61° 132° (SE) 03:43:36 435.350 FM
Gurwin Techsat 1B 20 Oct 03:43:59 03:49:03 46° 289° (WNW) 03:54:06 435.225
RS-15 20 Oct 03:46:02 03:56:54 34° 322° (NW) 04:07:43 29.354- 29.394
BEESAT 20 Oct 03:46:13 03:51:01 86° 73° (ENE) 03:55:50 436.000
ITAMSAT 1 20 Oct 03:49:24 03:52:47 17° 93° (E) 03:56:09 435.822/435.867
M-CUBED/EXP-1 PRIME 20 Oct 04:23:33 04:24:23 11° 298° (WNW) 04:25:14 437.505
KKS-1 20 Oct 04:38:22 04:41:38 21° 67° (ENE) 04:44:55 437.445
MOZHAYETS 4 20 Oct 04:44:37 04:48:07 21° 266° (W) 04:51:38
CUBESAT XI-V 20 Oct 04:53:09 04:57:47 80° 257° (WSW) 05:02:25 437.345
AO-7 20 Oct 05:06:26 05:14:47 89° 289° (WNW) 05:23:07 .
ITUPSAT 1 20 Oct 05:10:53 05:13:18 14° 268° (W) 05:15:44 437.325
STARS 20 Oct 05:12:35 05:15:41 19° 66° (ENE) 05:18:48 437.465
NO-84 20 Oct 05:13:36 05:17:05 23° 328° (NNW) 05:20:30 435.350 FM
ITAMSAT 1 20 Oct 05:27:26 05:32:32 54° 288° (WNW) 05:37:36 435.822/435.867
O/OREOS (USA 219) 20 Oct 05:58:03 06:00:17 13° 54° (NE) 06:02:30 437.305
RS-15 20 Oct 06:07:03 06:14:50 18° 357° (N) 06:22:29 29.354- 29.394
KKS-1 20 Oct 06:13:54 06:17:55 34° 262° (W) 06:21:59 437.445
LilacSat-2 20 Oct 06:14:13 06:15:34 12° 92° (E) 06:16:55 437.200
XW-2D 20 Oct 06:21:22 06:23:21 14° 93° (E) 06:25:20 145.860 - 145.880
